Regional Weather Roundup
Issued by NWS

Home | Current Version | Previous Version | Graphics & Text | Print | Product List | Glossary On
Versions: 1 2 3 4 5 6 7 8 9 10 11 12 13 14 15 16 17 18 19 20 21 22 23 24 25 26 27 28 29 30 31 32 33 34 35 36 37 38 39 40 41 42 43 44 45 46 47 48 49 50
000
ASUS43 KOAX 241910
RWRNE

WEATHER ROUNDUP FOR NEBRASKA
NATIONAL WEATHER SERVICE OMAHA NE
200 PM CDT MON APR 24 2017

NOTES: SATELLITE DATA IS BEING USED TO AUGMENT CLOUD COVER ABOVE
       12000 FEET.
       "FAIR" INDICATES FEW OR NO CLOUDS BELOW 12,000 FEET WITH NO
       SIGNIFICANT WEATHER AND/OR OBSTRUCTIONS TO VISIBILITY.

  * THESE STATIONS DO NOT REPORT WEATHER SUCH AS RAIN...SNOW OR FOG.

NEZ001>004-019>022-054>056-242000-
NEBRASKA PANHANDLE

CITY           SKY/WX    TMP DP  RH WIND       PRES   REMARKS
SCOTTSBLUFF    PTSUNNY   66  34  30 W14       29.62F
ALLIANCE       SUNNY     62  33  33 NW10      29.59F
CHADRON        SUNNY     63  37  38 NW16      29.59F
KIMBALL        SUNNY     64  34  32 NW10G22   29.65F
SIDNEY         MOSUNNY   64  37  36 N16G25    29.64F
$$

NEZ057>060-069>072-079>082-242000-
SOUTHWEST NEBRASKA

CITY           SKY/WX    TMP DP  RH WIND       PRES   REMARKS
NORTH PLATTE   SUNNY     69  45  41 N15G22    29.56R
IMPERIAL       SUNNY     69  37  30 N20       29.59S
LEXINGTON      SUNNY     67  40  37 SE3       29.53F
MCCOOK         SUNNY     77  41  27 NW8G22    29.53F
OGALLALA       SUNNY     72  33  23 NW18G26   29.59S
$$

NEZ005>010-023>029-035>040-094-242000-
NORTH CENTRAL NEBRASKA

CITY           SKY/WX    TMP DP  RH WIND       PRES   REMARKS
VALENTINE      MOSUNNY   58  40  51 N18G29    29.58S
AINSWORTH      CLOUDY    54  43  66 N18       29.58F
BROKEN BOW     SUNNY     70  41  34 NW20G26   29.53R
O`NEILL        SUNNY     66  40  38 SW8       29.54F
ORD            MOSUNNY   64  38  38 VRB3      29.52F
THEDFORD       MOSUNNY   64  43  46 NW18G25   29.57F
$$

NEZ041-046>049-061>064-073>077-083>087-242000-
SOUTH CENTRAL NEBRASKA

CITY           SKY/WX    TMP DP  RH WIND       PRES   REMARKS
GRAND ISLAND   CLOUDY    68  40  35 SW8       29.54F
AURORA         PTSUNNY   72  39  30 SW15      29.53F
HASTINGS       CLOUDY    70  40  33 S12G17    29.53F
HEBRON         CLOUDY    71  40  31 SW22G35   29.56S
HOLDREGE       SUNNY     66  38  34 N7        29.54F
KEARNEY *      CLOUDY    64  37  36 NW6       29.54R
YORK           MOSUNNY   73  39  29 SW17G29   29.55S
$$

NEZ011>018-030>034-042>045-242000-
NORTHEAST NEBRASKA

CITY           SKY/WX    TMP DP  RH WIND       PRES   REMARKS
NORFOLK        CLOUDY    66  38  35 SW18      29.54S
ALBION         CLOUDY    64  38  39 S12       29.55S
BLAIR          MOSUNNY   71  37  28 S23G32    29.58F
FREMONT        CLOUDY    71  38  30 S18G31    29.57F
TEKAMAH        MOSUNNY   70  39  32 S25G35    29.58F
WAYNE          CLOUDY    67  42  39 S18G31    29.54F
$$

NEZ050>053-065>068-078-088>093-242000-
SOUTHEAST NEBRASKA

CITY           SKY/WX    TMP DP  RH WIND       PRES   REMARKS
LINCOLN        MOSUNNY   75  40  28 S26G37    29.56F
OMAHA EPPLEY   PTSUNNY   72  35  25 S26G36    29.59F
BEATRICE       CLOUDY    72  43  34 S30       29.57F
FALLS CITY     SUNNY     70  39  32 S31G37    29.62F
NEBRASKA CITY  SUNNY     71  27  19 S29G36    29.62F
PLATTSMOUTH    CLOUDY    72  27  18 S22G37    29.60F
$$

NEZ044-045-051>053-067-242000-
OMAHA AREA

CITY           SKY/WX    TMP DP  RH WIND       PRES   REMARKS
OMAHA EPPLEY   PTSUNNY   72  35  25 S26G36    29.59F
BLAIR          MOSUNNY   71  37  28 S23G32    29.58F
FREMONT        CLOUDY    71  38  30 S18G31    29.57F
MILLARD        CLOUDY    74  41  30 S16G31    29.58F
OFFUTT AFB     PTSUNNY   72  38  28 S20G31    29.59F
PLATTSMOUTH    CLOUDY    72  27  18 S22G37    29.60F
WAHOO          FAIR      75  36  24 S31G39    29.57F
$$



USA.gov is the U.S. government's official web portal to all federal, state and local government web resources and services.